Year,Month,Day,Hour,Minute,Value (Times are PST for barometer in hPa)
2014,01,14,00,00,1034.88
2014,01,14,00,01,1034.88
2014,01,14,00,02,1034.88
2014,01,14,00,03,1034.88
2014,01,14,00,04,1034.91
2014,01,14,00,05,1034.88
2014,01,14,00,06,1034.85
2014,01,14,00,07,1034.88
2014,01,14,00,08,1034.88
2014,01,14,00,09,1034.91
2014,01,14,00,10,1034.91
2014,01,14,00,11,1034.91
2014,01,14,00,12,1034.91
2014,01,14,00,13,1034.85
2014,01,14,00,14,1034.88
2014,01,14,00,15,1034.85
2014,01,14,00,16,1034.78
2014,01,14,00,17,1034.80
2014,01,14,00,18,1034.71
2014,01,14,00,19,1034.71
2014,01,14,00,20,1034.71
2014,01,14,00,21,1034.78
2014,01,14,00,22,1034.78
2014,01,14,00,23,1034.71
2014,01,14,00,24,1034.71
2014,01,14,00,25,1034.71
2014,01,14,00,26,1034.78
2014,01,14,00,27,1034.81
2014,01,14,00,28,1034.85
2014,01,14,00,29,1034.81
2014,01,14,00,30,1034.88
2014,01,14,00,31,1034.85
2014,01,14,00,32,1034.88
2014,01,14,00,33,1034.95
2014,01,14,00,34,1034.95
2014,01,14,00,35,1035.02
2014,01,14,00,36,1035.05
2014,01,14,00,37,1035.12
2014,01,14,00,38,1035.08
2014,01,14,00,39,1035.12
2014,01,14,00,40,1035.12
2014,01,14,00,41,1035.15
2014,01,14,00,42,1035.15
2014,01,14,00,43,1035.15
2014,01,14,00,44,1035.12
2014,01,14,00,45,1035.15
2014,01,14,00,46,1035.08
2014,01,14,00,47,1035.04
2014,01,14,00,48,1034.95
2014,01,14,00,49,1034.88
2014,01,14,00,50,1034.88
2014,01,14,00,51,1034.88
2014,01,14,00,52,1034.88
2014,01,14,00,53,1034.95
2014,01,14,00,54,1034.95
2014,01,14,00,55,1034.98
2014,01,14,00,56,1034.95
2014,01,14,00,57,1034.98
2014,01,14,00,58,1034.95
2014,01,14,00,59,1034.98
2014,01,14,01,00,1035.02
2014,01,14,01,01,1034.98
2014,01,14,01,02,1035.02
2014,01,14,01,03,1035.02
2014,01,14,01,04,1035.05
2014,01,14,01,05,1035.02
2014,01,14,01,06,1035.02
2014,01,14,01,07,1035.05
2014,01,14,01,08,1035.05
2014,01,14,01,09,1035.08
2014,01,14,01,10,1035.08
2014,01,14,01,11,1035.08
2014,01,14,01,12,1035.08
2014,01,14,01,13,1035.02
2014,01,14,01,14,1035.02
2014,01,14,01,15,1035.02
2014,01,14,01,16,1035.02
2014,01,14,01,17,1035.05
2014,01,14,01,18,1034.98
2014,01,14,01,19,1034.98
2014,01,14,01,20,1034.98
2014,01,14,01,21,1034.98
2014,01,14,01,22,1034.95
2014,01,14,01,23,1034.98
2014,01,14,01,24,1035.02
2014,01,14,01,25,1034.98
2014,01,14,01,26,1034.98
2014,01,14,01,27,1035.05
2014,01,14,01,28,1035.12
2014,01,14,01,29,1035.08
2014,01,14,01,30,1035.05
2014,01,14,01,31,1035.08
2014,01,14,01,32,1035.05
2014,01,14,01,33,1035.12
2014,01,14,01,34,1035.12
2014,01,14,01,35,1035.12
2014,01,14,01,36,1035.15
2014,01,14,01,37,1035.15
2014,01,14,01,38,1035.19
2014,01,14,01,39,1035.19
2014,01,14,01,40,1035.22
2014,01,14,01,41,1035.25
2014,01,14,01,42,1035.29
2014,01,14,01,43,1035.32
2014,01,14,01,44,1035.32
2014,01,14,01,45,1035.32
2014,01,14,01,46,1035.35
2014,01,14,01,47,1035.42
2014,01,14,01,48,1035.42
2014,01,14,01,49,1035.42
2014,01,14,01,50,1035.46
2014,01,14,01,51,1035.49
2014,01,14,01,52,1035.49
2014,01,14,01,53,1035.56
2014,01,14,01,54,1035.56
2014,01,14,01,55,1035.63
2014,01,14,01,56,1035.59
2014,01,14,01,57,1035.59
2014,01,14,01,58,1035.63
2014,01,14,01,59,1035.63
2014,01,14,02,00,1035.63
2014,01,14,02,01,1035.63
2014,01,14,02,02,1035.63
2014,01,14,02,03,1035.59
2014,01,14,02,04,1035.59
2014,01,14,02,05,1035.56
2014,01,14,02,06,1035.56
2014,01,14,02,07,1035.59
2014,01,14,02,08,1035.56
2014,01,14,02,09,1035.56
2014,01,14,02,10,1035.56
2014,01,14,02,11,1035.59
2014,01,14,02,12,1035.59
2014,01,14,02,13,1035.66
2014,01,14,02,14,1035.69
2014,01,14,02,15,1035.69
2014,01,14,02,16,1035.73
2014,01,14,02,17,1035.76
2014,01,14,02,18,1035.76
2014,01,14,02,19,1035.76
2014,01,14,02,20,1035.83
2014,01,14,02,21,1035.83
2014,01,14,02,22,1035.83
2014,01,14,02,23,1035.86
2014,01,14,02,24,1035.86
2014,01,14,02,25,1035.90
2014,01,14,02,26,1035.90
2014,01,14,02,27,1035.96
2014,01,14,02,28,1036.00
2014,01,14,02,29,1035.96
2014,01,14,02,30,1036.00
2014,01,14,02,31,1036.00
2014,01,14,02,32,1036.03
2014,01,14,02,33,1036.07
2014,01,14,02,34,1036.07
2014,01,14,02,35,1036.04
2014,01,14,02,36,1036.20
2014,01,14,02,37,1036.17
2014,01,14,02,38,1036.17
2014,01,14,02,39,1036.24
2014,01,14,02,40,1036.27
2014,01,14,02,41,1036.30
2014,01,14,02,42,1036.34
2014,01,14,02,43,1036.37
2014,01,14,02,44,1036.40
2014,01,14,02,45,1036.40
2014,01,14,02,46,1036.47
2014,01,14,02,47,1036.47
2014,01,14,02,48,1036.51
2014,01,14,02,49,1036.54
2014,01,14,02,50,1036.51
2014,01,14,02,51,1036.51
2014,01,14,02,52,1036.51
2014,01,14,02,53,1036.51
2014,01,14,02,54,1036.54
2014,01,14,02,55,1036.51
2014,01,14,02,56,1036.54
2014,01,14,02,57,1036.57
2014,01,14,02,58,1036.54
2014,01,14,02,59,1036.57
2014,01,14,03,00,1036.57
2014,01,14,03,01,1036.57
2014,01,14,03,02,1036.61
2014,01,14,03,03,1036.61
2014,01,14,03,04,1036.68
2014,01,14,03,05,1036.64
2014,01,14,03,06,1036.64
2014,01,14,03,07,1036.68
2014,01,14,03,08,1036.71
2014,01,14,03,09,1036.64
2014,01,14,03,10,1036.64
2014,01,14,03,11,1036.61
2014,01,14,03,12,1036.57
2014,01,14,03,13,1036.54
2014,01,14,03,14,1036.57
2014,01,14,03,15,1036.61
2014,01,14,03,16,1036.61
2014,01,14,03,17,1036.57
2014,01,14,03,18,1036.57
2014,01,14,03,19,1036.57
2014,01,14,03,20,1036.57
2014,01,14,03,21,1036.51
2014,01,14,03,22,1036.57
2014,01,14,03,23,1036.54
2014,01,14,03,24,1036.57
2014,01,14,03,25,1036.61
2014,01,14,03,26,1036.54
2014,01,14,03,27,1036.54
2014,01,14,03,28,1036.54
2014,01,14,03,29,1036.47
2014,01,14,03,30,1036.40
2014,01,14,03,31,1036.40
2014,01,14,03,32,1036.37
2014,01,14,03,33,1036.40
2014,01,14,03,34,1036.37
2014,01,14,03,35,1036.47
2014,01,14,03,36,1036.47
2014,01,14,03,37,1036.51
2014,01,14,03,38,1036.57
2014,01,14,03,39,1036.57
2014,01,14,03,40,1036.61
2014,01,14,03,41,1036.61
2014,01,14,03,42,1036.61
2014,01,14,03,43,1036.61
2014,01,14,03,44,1036.64
2014,01,14,03,45,1036.64
2014,01,14,03,46,1036.64
2014,01,14,03,47,1036.64
2014,01,14,03,48,1036.61
2014,01,14,03,49,1036.61
2014,01,14,03,50,1036.57
2014,01,14,03,51,1036.64
2014,01,14,03,52,1036.64
2014,01,14,03,53,1036.64
2014,01,14,03,54,1036.68
2014,01,14,03,55,1036.68
2014,01,14,03,56,1036.64
2014,01,14,03,57,1036.64
2014,01,14,03,58,1036.64
2014,01,14,03,59,1036.68
2014,01,14,04,00,1036.68
2014,01,14,04,01,1036.68
2014,01,14,04,02,1036.71
2014,01,14,04,03,1036.71
2014,01,14,04,04,1036.71
2014,01,14,04,05,1036.68
2014,01,14,04,06,1036.68
2014,01,14,04,07,1036.68
2014,01,14,04,08,1036.68
2014,01,14,04,09,1036.64
2014,01,14,04,10,1036.68
2014,01,14,04,11,1036.64
2014,01,14,04,12,1036.61
2014,01,14,04,13,1036.64
2014,01,14,04,14,1036.64
2014,01,14,04,15,1036.71
2014,01,14,04,16,1036.74
2014,01,14,04,17,1036.81
2014,01,14,04,18,1036.81
2014,01,14,04,19,1036.81
2014,01,14,04,20,1036.81
2014,01,14,04,21,1036.84
2014,01,14,04,22,1036.84
2014,01,14,04,23,1036.84
2014,01,14,04,24,1036.88
2014,01,14,04,25,1036.84
2014,01,14,04,26,1036.81
2014,01,14,04,27,1036.84
2014,01,14,04,28,1036.91
2014,01,14,04,29,1036.91
2014,01,14,04,30,1036.88
2014,01,14,04,31,1036.91
2014,01,14,04,32,1036.88
2014,01,14,04,33,1036.78
2014,01,14,04,34,1036.81
2014,01,14,04,35,1036.81
2014,01,14,04,36,1036.81
2014,01,14,04,37,1036.84
2014,01,14,04,38,1036.88
2014,01,14,04,39,1036.84
2014,01,14,04,40,1036.88
2014,01,14,04,41,1036.88
2014,01,14,04,42,1036.91
2014,01,14,04,43,1036.91
2014,01,14,04,44,1036.95
2014,01,14,04,45,1036.91
2014,01,14,04,46,1036.95
2014,01,14,04,47,1036.95
2014,01,14,04,48,1036.91
2014,01,14,04,49,1036.98
2014,01,14,04,50,1036.91
2014,01,14,04,51,1036.95
2014,01,14,04,52,1036.95
2014,01,14,04,53,1036.91
2014,01,14,04,54,1036.98
2014,01,14,04,55,1036.95
2014,01,14,04,56,1036.98
2014,01,14,04,57,1036.95
2014,01,14,04,58,1036.91
2014,01,14,04,59,1036.95
2014,01,14,05,00,1036.88
2014,01,14,05,01,1036.91
2014,01,14,05,02,1036.88
2014,01,14,05,03,1036.88
2014,01,14,05,04,1036.88
2014,01,14,05,05,1036.84
2014,01,14,05,06,1036.81
2014,01,14,05,07,1036.81
2014,01,14,05,08,1036.81
2014,01,14,05,09,1036.84
2014,01,14,05,10,1036.81
2014,01,14,05,11,1036.78
2014,01,14,05,12,1036.78
2014,01,14,05,13,1036.81
2014,01,14,05,14,1036.81
2014,01,14,05,15,1036.84
2014,01,14,05,16,1036.81
2014,01,14,05,17,1036.88
2014,01,14,05,18,1036.88
2014,01,14,05,19,1036.95
2014,01,14,05,20,1036.88
2014,01,14,05,21,1036.84
2014,01,14,05,22,1036.88
2014,01,14,05,23,1036.88
2014,01,14,05,24,1036.91
2014,01,14,05,25,1036.95
2014,01,14,05,26,1036.91
2014,01,14,05,27,1036.95
2014,01,14,05,28,1036.91
2014,01,14,05,29,1036.95
2014,01,14,05,30,1036.98
2014,01,14,05,31,1036.98
2014,01,14,05,32,1036.98
2014,01,14,05,33,1036.95
2014,01,14,05,34,1036.98
2014,01,14,05,35,1036.95
2014,01,14,05,36,1036.91
2014,01,14,05,37,1036.95
2014,01,14,05,38,1036.91
2014,01,14,05,39,1036.91
2014,01,14,05,40,1036.88
2014,01,14,05,41,1036.91
2014,01,14,05,42,1036.91
2014,01,14,05,43,1036.91
2014,01,14,05,44,1036.88
2014,01,14,05,45,1036.91
2014,01,14,05,46,1036.91
2014,01,14,05,47,1036.88
2014,01,14,05,48,1036.88
2014,01,14,05,49,1036.81
2014,01,14,05,50,1036.84
2014,01,14,05,51,1036.81
2014,01,14,05,52,1036.81
2014,01,14,05,53,1036.81
2014,01,14,05,54,1036.78
2014,01,14,05,55,1036.78
2014,01,14,05,56,1036.78
2014,01,14,05,57,1036.81
2014,01,14,05,58,1036.78
2014,01,14,05,59,1036.78
2014,01,14,06,00,1036.81
2014,01,14,06,01,1036.78
2014,01,14,06,02,1036.78
2014,01,14,06,03,1036.78
2014,01,14,06,04,1036.81
2014,01,14,06,05,1036.78
2014,01,14,06,06,1036.81
2014,01,14,06,07,1036.81
2014,01,14,06,08,1036.84
2014,01,14,06,09,1036.88
2014,01,14,06,10,1036.81
2014,01,14,06,11,1036.84
2014,01,14,06,12,1036.84
2014,01,14,06,13,1036.84
2014,01,14,06,14,1036.81
2014,01,14,06,15,1036.81
2014,01,14,06,16,1036.78
2014,01,14,06,17,1036.81
2014,01,14,06,18,1036.81
2014,01,14,06,19,1036.84
2014,01,14,06,20,1036.78
2014,01,14,06,21,1036.84
2014,01,14,06,22,1036.84
2014,01,14,06,23,1036.88
2014,01,14,06,24,1036.91
2014,01,14,06,25,1036.91
2014,01,14,06,26,1036.91
2014,01,14,06,27,1036.91
2014,01,14,06,28,1036.95
2014,01,14,06,29,1036.91
2014,01,14,06,30,1036.88
2014,01,14,06,31,1036.95
2014,01,14,06,32,1036.98
2014,01,14,06,33,1037.01
2014,01,14,06,34,1036.98
2014,01,14,06,35,1037.01
2014,01,14,06,36,1037.01
2014,01,14,06,37,1037.05
2014,01,14,06,38,1037.01
2014,01,14,06,39,1037.05
2014,01,14,06,40,1037.01
2014,01,14,06,41,1037.05
2014,01,14,06,42,1037.05
2014,01,14,06,43,1037.05
2014,01,14,06,44,1037.01
2014,01,14,06,45,1037.05
2014,01,14,06,46,1037.01
2014,01,14,06,47,1037.01
2014,01,14,06,48,1036.98
2014,01,14,06,49,1036.98
2014,01,14,06,50,1036.98
2014,01,14,06,51,1036.98
2014,01,14,06,52,1036.98
2014,01,14,06,53,1037.01
2014,01,14,06,54,1037.05
2014,01,14,06,55,1037.01
2014,01,14,06,56,1037.05
2014,01,14,06,57,1036.98
2014,01,14,06,58,1037.01
2014,01,14,06,59,1037.01
2014,01,14,07,00,1037.05
2014,01,14,07,01,1037.01
2014,01,14,07,02,1036.98
2014,01,14,07,03,1036.98
2014,01,14,07,04,1036.95
2014,01,14,07,05,1036.91
2014,01,14,07,06,1036.91
2014,01,14,07,07,1036.88
2014,01,14,07,08,1036.91
2014,01,14,07,09,1036.91
2014,01,14,07,10,1036.88
2014,01,14,07,11,1036.78
2014,01,14,07,12,1036.78
2014,01,14,07,13,1036.78
2014,01,14,07,14,1036.71
2014,01,14,07,15,1036.68
2014,01,14,07,16,1036.64
2014,01,14,07,17,1036.61
2014,01,14,07,18,1036.61
2014,01,14,07,19,1036.57
2014,01,14,07,20,1036.54
2014,01,14,07,21,1036.57
2014,01,14,07,22,1036.54
2014,01,14,07,23,1036.54
2014,01,14,07,24,1036.54
2014,01,14,07,25,1036.57
2014,01,14,07,26,1036.54
2014,01,14,07,27,1036.51
2014,01,14,07,28,1036.51
2014,01,14,07,29,1036.57
2014,01,14,07,30,1036.54
2014,01,14,07,31,1036.57
2014,01,14,07,32,1036.54
2014,01,14,07,33,1036.47
2014,01,14,07,34,1036.51
2014,01,14,07,35,1036.51
2014,01,14,07,36,1036.57
2014,01,14,07,37,1036.57
2014,01,14,07,38,1036.61
2014,01,14,07,39,1036.64
2014,01,14,07,40,1036.64
2014,01,14,07,41,1036.68
2014,01,14,07,42,1036.74
2014,01,14,07,43,1036.71
2014,01,14,07,44,1036.74
2014,01,14,07,45,1036.78
2014,01,14,07,46,1036.81
2014,01,14,07,47,1036.84
2014,01,14,07,48,1036.91
2014,01,14,07,49,1036.88
2014,01,14,07,50,1036.91
2014,01,14,07,51,1036.84
2014,01,14,07,52,1036.84
2014,01,14,07,53,1036.81
2014,01,14,07,54,1036.81
2014,01,14,07,55,1036.78
2014,01,14,07,56,1036.81
2014,01,14,07,57,1036.81
2014,01,14,07,58,1036.81
2014,01,14,07,59,1036.84
2014,01,14,08,00,1036.81
2014,01,14,08,01,1036.84
2014,01,14,08,02,1036.88
2014,01,14,08,03,1036.88
2014,01,14,08,04,1036.84
2014,01,14,08,05,1036.81
2014,01,14,08,06,1036.84
2014,01,14,08,07,1036.84
2014,01,14,08,08,1036.88
2014,01,14,08,09,1036.98
2014,01,14,08,10,1036.98
2014,01,14,08,11,1037.05
2014,01,14,08,12,1037.12
2014,01,14,08,13,1037.15
2014,01,14,08,14,1037.12
2014,01,14,08,15,1037.08
2014,01,14,08,16,1037.18
2014,01,14,08,17,1037.22
2014,01,14,08,18,1037.25
2014,01,14,08,19,1037.22
2014,01,14,08,20,1037.18
2014,01,14,08,21,1037.15
2014,01,14,08,22,1037.15
2014,01,14,08,23,1037.15
2014,01,14,08,24,1037.15
2014,01,14,08,25,1037.25
2014,01,14,08,26,1037.29
2014,01,14,08,27,1037.25
2014,01,14,08,28,1037.22
2014,01,14,08,29,1037.32
2014,01,14,08,30,1037.35
2014,01,14,08,31,1037.29
2014,01,14,08,32,1037.39
2014,01,14,08,33,1037.29
2014,01,14,08,34,1037.29
2014,01,14,08,35,1037.35
2014,01,14,08,36,1037.35
2014,01,14,08,37,1037.42
2014,01,14,08,38,1037.39
2014,01,14,08,39,1037.29
2014,01,14,08,40,1037.22
2014,01,14,08,41,1037.22
2014,01,14,08,42,1037.25
2014,01,14,08,43,1037.25
2014,01,14,08,44,1037.29
2014,01,14,08,45,1037.32
2014,01,14,08,46,1037.32
2014,01,14,08,47,1037.32
2014,01,14,08,48,1037.32
2014,01,14,08,49,1037.29
2014,01,14,08,50,1037.35
2014,01,14,08,51,1037.32
2014,01,14,08,52,1037.29
2014,01,14,08,53,1037.29
2014,01,14,08,54,1037.29
2014,01,14,08,55,1037.35
2014,01,14,08,56,1037.39
2014,01,14,08,57,1037.45
2014,01,14,08,58,1037.45
2014,01,14,08,59,1037.45
2014,01,14,09,00,1037.45
2014,01,14,09,01,1037.52
2014,01,14,09,02,1037.45
2014,01,14,09,03,1037.45
2014,01,14,09,04,1037.45
2014,01,14,09,05,1037.45
2014,01,14,09,06,1037.52
2014,01,14,09,07,1037.59
2014,01,14,09,08,1037.62
2014,01,14,09,09,1037.73
2014,01,14,09,10,1037.73
2014,01,14,09,11,1037.79
2014,01,14,09,12,1037.79
2014,01,14,09,13,1037.79
2014,01,14,09,14,1037.79
2014,01,14,09,15,1037.83
2014,01,14,09,16,1037.83
2014,01,14,09,17,1037.93
2014,01,14,09,18,1037.96
2014,01,14,09,19,1037.86
2014,01,14,09,20,1037.93
2014,01,14,09,21,1037.96
2014,01,14,09,22,1037.89
2014,01,14,09,23,1037.93
2014,01,14,09,24,1037.89
2014,01,14,09,25,1037.93
2014,01,14,09,26,1037.89
2014,01,14,09,27,1037.86
2014,01,14,09,28,1037.93
2014,01,14,09,29,1037.93
2014,01,14,09,30,1037.93
2014,01,14,09,31,1037.89
2014,01,14,09,32,1037.89
2014,01,14,09,33,1037.93
2014,01,14,09,34,1037.96
2014,01,14,09,35,1038.00
2014,01,14,09,36,1038.00
2014,01,14,09,37,1037.96
2014,01,14,09,38,1038.00
2014,01,14,09,39,1038.06
2014,01,14,09,40,1038.06
2014,01,14,09,41,1038.10
2014,01,14,09,42,1038.06
2014,01,14,09,43,1038.06
2014,01,14,09,44,1038.06
2014,01,14,09,45,1038.03
2014,01,14,09,46,1038.03
2014,01,14,09,47,1038.00
2014,01,14,09,48,1038.06
2014,01,14,09,49,1038.10
2014,01,14,09,50,1038.17
2014,01,14,09,51,1038.10
2014,01,14,09,52,1038.10
2014,01,14,09,53,1038.17
2014,01,14,09,54,1038.03
2014,01,14,09,55,1038.06
2014,01,14,09,56,1038.10
2014,01,14,09,57,1038.17
2014,01,14,09,58,1038.17
2014,01,14,09,59,1038.17
2014,01,14,10,00,1038.10
2014,01,14,10,01,1038.06
2014,01,14,10,02,1038.10
2014,01,14,10,03,1038.10
2014,01,14,10,04,1038.10
2014,01,14,10,05,1038.10
2014,01,14,10,06,1038.10
2014,01,14,10,07,1038.17
2014,01,14,10,08,1038.23
2014,01,14,10,09,1038.27
2014,01,14,10,10,1038.23
2014,01,14,10,11,1038.33
2014,01,14,10,12,1038.27
2014,01,14,10,13,1038.17
2014,01,14,10,14,1038.23
2014,01,14,10,15,1038.27
2014,01,14,10,16,1038.23
2014,01,14,10,17,1038.10
2014,01,14,10,18,1038.17
2014,01,14,10,19,1038.10
2014,01,14,10,20,1038.17
2014,01,14,10,21,1038.20
2014,01,14,10,22,1038.23
2014,01,14,10,23,1038.17
2014,01,14,10,24,1038.17
2014,01,14,10,25,1038.17
2014,01,14,10,26,1038.20
2014,01,14,10,27,1038.20
2014,01,14,10,28,1038.20
2014,01,14,10,29,1038.06
2014,01,14,10,30,1038.17
2014,01,14,10,31,1038.20
2014,01,14,10,32,1038.20
2014,01,14,10,33,1038.17
2014,01,14,10,34,1038.17
2014,01,14,10,35,1038.17
2014,01,14,10,36,1038.20
2014,01,14,10,37,1038.20
2014,01,14,10,38,1038.20
2014,01,14,10,39,1038.27
2014,01,14,10,40,1038.23
2014,01,14,10,41,1038.27
2014,01,14,10,42,1038.20
2014,01,14,10,43,1038.23
2014,01,14,10,44,1038.20
2014,01,14,10,45,1038.20
2014,01,14,10,46,1038.23
2014,01,14,10,47,1038.20
2014,01,14,10,48,1038.23
2014,01,14,10,49,1038.33
2014,01,14,10,50,1038.30
2014,01,14,10,51,1038.40
2014,01,14,10,52,1038.37
2014,01,14,10,53,1038.40
2014,01,14,10,54,1038.37
2014,01,14,10,55,1038.40
2014,01,14,10,56,1038.44
2014,01,14,10,57,1038.44
2014,01,14,10,58,1038.47
2014,01,14,10,59,1038.44
2014,01,14,11,00,1038.50
2014,01,14,11,01,1038.54
2014,01,14,11,02,1038.37
2014,01,14,11,03,1038.47
2014,01,14,11,04,1038.47
2014,01,14,11,05,1038.40
2014,01,14,11,06,1038.40
2014,01,14,11,07,1038.37
2014,01,14,11,08,1038.44
2014,01,14,11,09,1038.40
2014,01,14,11,10,1038.44
2014,01,14,11,11,1038.47
2014,01,14,11,12,1038.47
2014,01,14,11,13,1038.44
2014,01,14,11,14,1038.37
2014,01,14,11,15,1038.40
2014,01,14,11,16,1038.40
2014,01,14,11,17,1038.40
2014,01,14,11,18,1038.44
2014,01,14,11,19,1038.40
2014,01,14,11,20,1038.44
2014,01,14,11,21,1038.40
2014,01,14,11,22,1038.37
2014,01,14,11,23,1038.40
2014,01,14,11,24,1038.37
2014,01,14,11,25,1038.37
2014,01,14,11,26,1038.40
2014,01,14,11,27,1038.40
2014,01,14,11,28,1038.33
2014,01,14,11,29,1038.40
2014,01,14,11,30,1038.44
2014,01,14,11,31,1038.33
2014,01,14,11,32,1038.44
2014,01,14,11,33,1038.40
2014,01,14,11,34,1038.40
2014,01,14,11,35,1038.33
2014,01,14,11,36,1038.33
2014,01,14,11,37,1038.33
2014,01,14,11,38,1038.30
2014,01,14,11,39,1038.33
2014,01,14,11,40,1038.33
2014,01,14,11,41,1038.33
2014,01,14,11,42,1038.30
2014,01,14,11,43,1038.27
2014,01,14,11,44,1038.23
2014,01,14,11,45,1038.17
2014,01,14,11,46,1038.23
2014,01,14,11,47,1038.17
2014,01,14,11,48,1038.23
2014,01,14,11,49,1038.23
2014,01,14,11,50,1038.17
2014,01,14,11,51,1038.13
2014,01,14,11,52,1038.13
2014,01,14,11,53,1038.13
2014,01,14,11,54,1038.13
2014,01,14,11,55,1038.20
2014,01,14,11,56,1038.13
2014,01,14,11,57,1038.10
2014,01,14,11,58,1038.17
2014,01,14,11,59,1038.06
2014,01,14,12,00,1038.06
2014,01,14,12,01,1038.06
2014,01,14,12,02,1038.03
2014,01,14,12,03,1038.00
2014,01,14,12,04,1038.00
2014,01,14,12,05,1037.93
2014,01,14,12,06,1037.89
2014,01,14,12,07,1037.89
2014,01,14,12,08,1037.86
2014,01,14,12,09,1037.89
2014,01,14,12,10,1037.89
2014,01,14,12,11,1037.83
2014,01,14,12,12,1037.76
2014,01,14,12,13,1037.76
2014,01,14,12,14,1037.69
2014,01,14,12,15,1037.73
2014,01,14,12,16,1037.69
2014,01,14,12,17,1037.69
2014,01,14,12,18,1037.69
2014,01,14,12,19,1037.66
2014,01,14,12,20,1037.66
2014,01,14,12,21,1037.62
2014,01,14,12,22,1037.62
2014,01,14,12,23,1037.62
2014,01,14,12,24,1037.66
2014,01,14,12,25,1037.62
2014,01,14,12,26,1037.59
2014,01,14,12,27,1037.59
2014,01,14,12,28,1037.62
2014,01,14,12,29,1037.59
2014,01,14,12,30,1037.59
2014,01,14,12,31,1037.56
2014,01,14,12,32,1037.52
2014,01,14,12,33,1037.52
2014,01,14,12,34,1037.49
2014,01,14,12,35,1037.49
2014,01,14,12,36,1037.49
2014,01,14,12,37,1037.39
2014,01,14,12,38,1037.42
2014,01,14,12,39,1037.32
2014,01,14,12,40,1037.39
2014,01,14,12,41,1037.42
2014,01,14,12,42,1037.42
2014,01,14,12,43,1037.42
2014,01,14,12,44,1037.39
2014,01,14,12,45,1037.29
2014,01,14,12,46,1037.39
2014,01,14,12,47,1037.35
2014,01,14,12,48,1037.39
2014,01,14,12,49,1037.35
2014,01,14,12,50,1037.32
2014,01,14,12,51,1037.35
2014,01,14,12,52,1037.32
2014,01,14,12,53,1037.32
2014,01,14,12,54,1037.39
2014,01,14,12,55,1037.35
2014,01,14,12,56,1037.39
2014,01,14,12,57,1037.39
2014,01,14,12,58,1037.35
2014,01,14,12,59,1037.39
2014,01,14,13,00,1037.39
2014,01,14,13,01,1037.35
2014,01,14,13,02,1037.35
2014,01,14,13,03,1037.32
2014,01,14,13,04,1037.29
2014,01,14,13,05,1037.18
2014,01,14,13,06,1037.25
2014,01,14,13,07,1037.25
2014,01,14,13,08,1037.25
2014,01,14,13,09,1037.15
2014,01,14,13,10,1037.12
2014,01,14,13,11,1037.12
2014,01,14,13,12,1037.12
2014,01,14,13,13,1037.08
2014,01,14,13,14,1037.05
2014,01,14,13,15,1036.98
2014,01,14,13,16,1036.98
2014,01,14,13,17,1036.91
2014,01,14,13,18,1036.95
2014,01,14,13,19,1036.95
2014,01,14,13,20,1036.95
2014,01,14,13,21,1036.91
2014,01,14,13,22,1036.95
2014,01,14,13,23,1036.91
2014,01,14,13,24,1036.91
2014,01,14,13,25,1036.88
2014,01,14,13,26,1036.81
2014,01,14,13,27,1036.81
2014,01,14,13,28,1036.84
2014,01,14,13,29,1036.84
2014,01,14,13,30,1036.84
2014,01,14,13,31,1036.84
2014,01,14,13,32,1036.91
2014,01,14,13,33,1036.81
2014,01,14,13,34,1036.81
2014,01,14,13,35,1036.95
2014,01,14,13,36,1036.95
2014,01,14,13,37,1036.95
2014,01,14,13,38,1036.98
2014,01,14,13,39,1036.95
2014,01,14,13,40,1036.98
2014,01,14,13,41,1037.01
2014,01,14,13,42,1036.98
2014,01,14,13,43,1036.91
2014,01,14,13,44,1036.84
2014,01,14,13,45,1036.88
2014,01,14,13,46,1036.84
2014,01,14,13,47,1036.91
2014,01,14,13,48,1036.91
2014,01,14,13,49,1036.88
2014,01,14,13,50,1036.91
2014,01,14,13,51,1036.91
2014,01,14,13,52,1036.91
2014,01,14,13,53,1036.91
2014,01,14,13,54,1036.84
2014,01,14,13,55,1036.84
2014,01,14,13,56,1036.88
2014,01,14,13,57,1036.88
2014,01,14,13,58,1036.84
2014,01,14,13,59,1036.88
2014,01,14,14,00,1036.88
2014,01,14,14,01,1036.91
2014,01,14,14,02,1036.78
2014,01,14,14,03,1036.81
2014,01,14,14,04,1036.91
2014,01,14,14,05,1036.88
2014,01,14,14,06,1036.88
2014,01,14,14,07,1036.78
2014,01,14,14,08,1036.88
2014,01,14,14,09,1036.91
2014,01,14,14,10,1036.88
2014,01,14,14,11,1036.88
2014,01,14,14,12,1036.91
2014,01,14,14,13,1036.88
2014,01,14,14,14,1036.88
2014,01,14,14,15,1036.88
2014,01,14,14,16,1036.84
2014,01,14,14,17,1036.84
2014,01,14,14,18,1036.84
2014,01,14,14,19,1036.84
2014,01,14,14,20,1036.88
2014,01,14,14,21,1036.88
2014,01,14,14,22,1036.88
2014,01,14,14,23,1036.88
2014,01,14,14,24,1036.84
2014,01,14,14,25,1036.84
2014,01,14,14,26,1036.84
2014,01,14,14,27,1036.88
2014,01,14,14,28,1036.84
2014,01,14,14,29,1036.84
2014,01,14,14,30,1036.88
2014,01,14,14,31,1036.81
2014,01,14,14,32,1036.81
2014,01,14,14,33,1036.91
2014,01,14,14,34,1036.84
2014,01,14,14,35,1036.74
2014,01,14,14,36,1036.68
2014,01,14,14,37,1036.68
2014,01,14,14,38,1036.68
2014,01,14,14,39,1036.64
2014,01,14,14,40,1036.71
2014,01,14,14,41,1036.64
2014,01,14,14,42,1036.71
2014,01,14,14,43,1036.74
2014,01,14,14,44,1036.74
2014,01,14,14,45,1036.74
2014,01,14,14,46,1036.71
2014,01,14,14,47,1036.74
2014,01,14,14,48,1036.74
2014,01,14,14,49,1036.68
2014,01,14,14,50,1036.71
2014,01,14,14,51,1036.74
2014,01,14,14,52,1036.78
2014,01,14,14,53,1036.71
2014,01,14,14,54,1036.74
2014,01,14,14,55,1036.74
2014,01,14,14,56,1036.71
2014,01,14,14,57,1036.71
2014,01,14,14,58,1036.74
2014,01,14,14,59,1036.74
2014,01,14,15,00,1036.71
2014,01,14,15,01,1036.78
2014,01,14,15,02,1036.81
2014,01,14,15,03,1036.78
2014,01,14,15,04,1036.74
2014,01,14,15,05,1036.71
2014,01,14,15,06,1036.71
2014,01,14,15,07,1036.68
2014,01,14,15,08,1036.64
2014,01,14,15,09,1036.61
2014,01,14,15,10,1036.57
2014,01,14,15,11,1036.71
2014,01,14,15,12,1036.68
2014,01,14,15,13,1036.68
2014,01,14,15,14,1036.71
2014,01,14,15,15,1036.74
2014,01,14,15,16,1036.71
2014,01,14,15,17,1036.74
2014,01,14,15,18,1036.68
2014,01,14,15,19,1036.71
2014,01,14,15,20,1036.64
2014,01,14,15,21,1036.68
2014,01,14,15,22,1036.68
2014,01,14,15,23,1036.68
2014,01,14,15,24,1036.71
2014,01,14,15,25,1036.68
2014,01,14,15,26,1036.68
2014,01,14,15,27,1036.68
2014,01,14,15,28,1036.64
2014,01,14,15,29,1036.64
2014,01,14,15,30,1036.61
2014,01,14,15,31,1036.61
2014,01,14,15,32,1036.64
2014,01,14,15,33,1036.64
2014,01,14,15,34,1036.68
2014,01,14,15,35,1036.71
2014,01,14,15,36,1036.68
2014,01,14,15,37,1036.64
2014,01,14,15,38,1036.68
2014,01,14,15,39,1036.64
2014,01,14,15,40,1036.74
2014,01,14,15,41,1036.74
2014,01,14,15,42,1036.71
2014,01,14,15,43,1036.74
2014,01,14,15,44,1036.68
2014,01,14,15,45,1036.74
2014,01,14,15,46,1036.68
2014,01,14,15,47,1036.81
2014,01,14,15,48,1036.81
2014,01,14,15,49,1036.78
2014,01,14,15,50,1036.74
2014,01,14,15,51,1036.74
2014,01,14,15,52,1036.74
2014,01,14,15,53,1036.71
2014,01,14,15,54,1036.61
2014,01,14,15,55,1036.68
2014,01,14,15,56,1036.68